Regional Weather Roundup
Issued by NWS Northern Indiana

Home | Current Version | Previous Version | Text Only | Print | Product List | Glossary Off
Versions: 1 2 3 4 5 6 7 8 9 10 11 12 13 14 15 16 17 18 19 20 21 22 23 24 25 26 27 28 29 30 31 32 33 34 35 36 37 38 39 40 41 42 43 44 45 46 47 48 49 50

949
ASUS43 KIWX 260710
RWRIWX

KIWX WEATHER ROUNDUP
NATIONAL WEATHER SERVICE NORTHERN INDIANA
200 AM EST SUN FEB 26 2017

NOTE: "FAIR" INDICATES FEW OR NO CLOUDS BELOW 12,000 FEET WITH NO
SIGNIFICANT WEATHER AND/OR OBSTRUCTIONS TO VISIBILITY.

* THESE STATIONS ARE NOT UNDER NWS QUALITY CONTROL. THEY ALSO MAY NOT
  REPORT WEATHER SUCH AS PRECIPITATION OR FOG.

INZ001>027-260800-
NORTHERN INDIANA

CITY           SKY/WX    TMP DP  RH WIND       PRES   REMARKS
GARY*          CLOUDY    26  14  62 CALM      30.08R
VALPARAISO     CLOUDY    23  15  71 SW5       30.07R WCI  17
MICHIGAN CITY* CLOUDY    28  16  59 W5        30.07R WCI  23
LAPORTE*       CLOUDY    23  17  77 SW6       30.07R WCI  16
KNOX*          PTCLDY    25   0  33 W7        30.08R WCI  17
SOUTH BEND     CLOUDY    26  16  65 W9        30.05R WCI  17
GOSHEN         CLOUDY    26  16  65 W12       30.04R WCI  16
MONTICELLO*    CLEAR     23  18  81 W5        30.09R WCI  17
LOGANSPORT*    CLEAR     25  18  74 W5        30.10R WCI  19
ROCHESTER*     CLOUDY    28  18  64 W6        30.08R WCI  22
WARSAW*        CLOUDY    25  16  68 W8        30.05R WCI  16
ANGOLA*        CLOUDY    25  21  86 W3        30.02R
FORT WAYNE     FLURRIES  27  20  75 W8        30.05R WCI  19
HUNTINGTON*    CLOUDY    26  15  62 W6        30.06R WCI  19
PERU/GRISSOM   CLOUDY    24  17  74 NW8       30.06R WCI  15
MARION*        MOCLDY    25  18  76 W9        30.08R WCI  15

$$
INZ028>050-260800-
CENTRAL INDIANA

CITY           SKY/WX    TMP DP  RH WIND       PRES   REMARKS
LAFAYETTE      CLEAR     22  18  85 W5        30.11R WCI  16
KOKOMO*        CLEAR     23  18  81 NW10      30.08R WCI  12
MUNCIE*        PTCLDY    26  16  65 NW10      30.06R WCI  16
INDIANAPOLIS   PTCLDY    23  16  74 W8        30.10R WCI  14

$$
MIZ043>046-050>051-056>058-064>065-071>073-077>080-260800-
SOUTHWEST LOWER MICHIGAN

CITY           SKY/WX    TMP DP  RH WIND       PRES   REMARKS
BATTLE CREEK   CLOUDY    24  18  77 W7        30.00R WCI  16
BENTON HARBOR  CLOUDY    28  15  58 VRB7      30.04R WCI  21
COLDWATER*     LGT SNOW  24  21  90 SW7       30.01S WCI  16
HILLSDALE*     LGT SNOW  23  19  86 W5        29.99R WCI  17
HOLLAND        CLOUDY    28  16  60 W8        30.01R WCI  20
GRAND RAPIDS   CLEAR     22  14  71 SW6       29.99R WCI  14
KALAMAZOO      CLOUDY    25  16  68 SW5       30.01R WCI  19
STURGIS*       CLOUDY    24  19  82 W5        30.02R WCI  18
THREE RIVERS*  CLOUDY    25  19  77 W3        30.03R

$$
OHZ001>008-015>018-024>025-260800-
NORTHWEST OHIO

CITY           SKY/WX    TMP DP  RH WIND       PRES   REMARKS
WAUSEON*       CLOUDY    25  19  80 W7        30.03R WCI  17
DEFIANCE       CLOUDY    25  16  68 VRB7      30.05R WCI  17
FINDLAY        CLOUDY    27  16  63 NW9       30.03R WCI  18
TOLEDO EXPRESS CLOUDY    24  17  74 W9        30.03R WCI  14
TOLEDO METCALF CLOUDY    26  16  65 W9        30.05R WCI  17
LIMA           FLURRIES  26  20  77 NW9       30.04R WCI  17

$$
AND FOR LAKE MICHIGAN COASTAL AND OPEN LAKE BUOY OBSERVATIONS

STATION/POSITION TEMP    WIND        PRES    VSBY  WAVE
                 AIR SEA DIR/SP/G                  HT/PER
                 (F)     (DEG/KT/KT) (MB)    (MI)  (FT/S)
CALUMET HARBOR    26     210/  4/  6 1017.3R
MICHIGAN CITY     27     260/ 14/ 16   N/A
BURNS HARBOR      28     290/ 14/ 17 1018.3R
SAINT JOSEPH      29     280/  9/ 13 1017.3

$$
&&




USA.gov is the U.S. government's official web portal to all federal, state and local government web resources and services.